User: anonymous   Login
Location: Lamoine Observatory
(44.4551°N, 68.3470°W)
Time: 11:15:18
(UTC-04:00)
Language:

Cosmos 1674 Rocket - Orbit

View from above orbital plane
View from above orbital plane
View from above satellite
View from above satellite

Ground track
Ground track

The orbit data is extracted from the following two-line orbital elements,

1 15945U 85069B   17086.83123870 +.00000120 +00000-0 +11456-4 0  9990
2 15945 082.5297 209.1989 0019604 186.2880 173.8092 14.83914542708961
Epoch (UTC): 27 March 2017 19:56:59
Eccentricity: 0.0019604
inclination: 82.5297°
perigee height: 603 km
apogee height: 631 km
right ascension of ascending node: 209.1989°
argument of perigee: 186.2880°
revolutions per day: 14.83914542
mean anomaly at epoch: 173.8092°
orbit number at epoch: 70896

The dashed part of the orbit path shows where the satellite is in the earth's shadow,  

DLR